Ontario, CA

1:31 PM PST on November 22, 2017 (GMT -0800)
Ontario International

Weather History for KONT - August, 2013

Change the Weather History Date:

Wednesday, August 28, 2013

  Actual Average Record
Temperature  
Mean Temperature 87 °F 79 °F  
Max Temperature 100 °F 93 °F 110 °F (2017)
Min Temperature 74 °F 65 °F 59 °F (2010)
Degree Days  
Heating Degree Days 0 0  
Month to date heating degree days 0 0  
Since 1 June heating degree days 0 5  
Since 1 July heating degree days 0 0  
Cooling Degree Days 22 14  
Month to date cooling degree days 379 392  
Year to date cooling degree days 1401 1176  
Since 1 June cooling degree days 1110 1010  
Growing Degree Days 38 (Base 50)    
Moisture  
Dew Point 51 °F    
Average Humidity 31    
Maximum Humidity 41    
Minimum Humidity 21    
Precipitation  
Precipitation 0.00 in 0.01 in 0.00 in (2017)
Month to date precipitation T 0.13  
Year to date precipitation 2.83 10.60  
Since 1 July precipitation 0.04  
Snow  
Snow 0.00 in - - ()
Month to date snowfall 0.0  
Year to date snowfall 0.0  
Snow Depth 0.00 in    
Sea Level Pressure  
Sea Level Pressure 29.78 in    
Wind  
Wind Speed 5 mph (WSW)    
Max Wind Speed 17 mph    
Max Gust Speed 24 mph    
Visibility 10 miles    
Events      
T = Trace of Precipitation, MM = Missing Value Source: NWS Daily Summary

Daily Weather History Graph

Daily Weather History Graph

Search for Another Location

Airport or City:

Trip Planner

Search our weather history database for the weather conditions in past years. The results will help you decide how hot, cold, wet, or windy it might be!

Date:

Astronomy

Aug. 28, 2013 Rise Set
Actual Time 6:21 AM PDT 7:21 PM PDT
Civil Twilight 5:55 AM PDT 7:46 PM PDT
Nautical Twilight 5:25 AM PDT 8:17 PM PDT
Astronomical Twilight 4:53 AM PDT 8:48 PM PDT
Moon No Moon Rise 1:55 PM PDT (8/28)
Length of Visible Light 13h 51m
Length of Day
12h 59m
Last Quarter, 46% of the Moon is Illuminated
Aug 28
Last Quarter
Sep 5
New
Sep 12
First Quarter
Sep 19
Full
Sep 26
Last Quarter

Hourly Weather History & Observations

Time (PDT) Temp. Heat Index Dew Point Humidity Pressure Visibility Wind Dir Wind Speed Gust Speed Precip Events Conditions
12:53 AM 78.1 °F - 48.9 °F 36% 29.76 in 10.0 mi Calm Calm - N/A   Scattered Clouds
1:53 AM 77.0 °F - 48.0 °F 36% 29.75 in 10.0 mi Calm Calm - N/A   Partly Cloudy
2:53 AM 75.9 °F - 48.9 °F 38% 29.74 in 10.0 mi Calm Calm - N/A   Clear
3:53 AM 77.0 °F - 48.9 °F 37% 29.74 in 10.0 mi Calm Calm - N/A   Clear
4:53 AM 75.9 °F - 50.0 °F 40% 29.74 in 10.0 mi Calm Calm - N/A   Clear
5:53 AM 75.9 °F - 50.0 °F 40% 29.75 in 10.0 mi Calm Calm - N/A   Partly Cloudy
6:53 AM 75.9 °F - 48.9 °F 38% 29.77 in 10.0 mi Calm Calm - N/A   Partly Cloudy
7:53 AM 80.1 °F - 50.0 °F 35% 29.80 in 7.0 mi Calm Calm - N/A   Partly Cloudy
8:53 AM 82.9 °F - 50.0 °F 32% 29.81 in 10.0 mi Calm Calm - N/A   Partly Cloudy
9:53 AM 84.9 °F 83.2 °F 53.1 °F 33% 29.81 in 10.0 mi Calm Calm - N/A   Partly Cloudy
10:53 AM 90.0 °F 87.9 °F 55.0 °F 30% 29.81 in 10.0 mi SW 4.6 mph - N/A   Partly Cloudy
11:53 AM 93.9 °F 92.2 °F 55.9 °F 28% 29.81 in 10.0 mi Variable 6.9 mph - N/A   Partly Cloudy
12:53 PM 97.0 °F - 52.0 °F 22% 29.78 in 10.0 mi WNW 6.9 mph - N/A   Partly Cloudy
1:53 PM 100.0 °F 97.9 °F 53.1 °F 21% 29.78 in 10.0 mi West 16.1 mph 21.9 mph N/A   Scattered Clouds
2:53 PM 100.0 °F 98.3 °F 55.0 °F 22% 29.75 in 10.0 mi WSW 16.1 mph 21.9 mph N/A   Partly Cloudy
3:53 PM 98.1 °F 96.4 °F 55.0 °F 24% 29.74 in 10.0 mi WSW 11.5 mph 21.9 mph N/A   Partly Cloudy
4:53 PM 97.0 °F 95.0 °F 55.0 °F 24% 29.74 in 10.0 mi West 15.0 mph - N/A   Partly Cloudy
5:53 PM 93.9 °F 92.0 °F 55.0 °F 27% 29.75 in 10.0 mi WSW 12.7 mph - N/A   Partly Cloudy
6:53 PM 91.0 °F 89.2 °F 55.9 °F 30% 29.76 in 10.0 mi West 12.7 mph - N/A   Partly Cloudy
7:53 PM 87.1 °F 85.3 °F 55.0 °F 33% 29.79 in 10.0 mi WSW 10.4 mph - N/A   Partly Cloudy
8:53 PM 84.0 °F - 51.1 °F 32% 29.82 in 10.0 mi West 10.4 mph - N/A   Clear
9:53 PM 82.0 °F - 46.9 °F 29% 29.84 in 10.0 mi West 6.9 mph - N/A   Clear
10:53 PM 82.0 °F - 45.0 °F 27% 29.86 in 10.0 mi West 3.5 mph - N/A   Clear
11:53 PM 80.1 °F - 44.1 °F 28% 29.85 in 10.0 mi Calm Calm - N/A   Clear